(489939) = 2008 RV90

Discovered at Kitt Peak on 2008-07-29 by Spacewatch.

Orbit

Orbit type: Main Belt

Note: WebGL enabled browser required.

epoch2023-09-13.0
epoch JD2460200.5
perihelion date2023-07-16.34190
perihelion JD2460141.84190
argument of perihelion (°)157.79447
ascending node (°)169.15321
inclination (°)1.34304
eccentricity0.1962997
perihelion distance (AU)1.9349255
Tisserand w.r.t. Jupiter3.5
ΔV w.r.t. Earth (km/sec)8.7
semimajor axis (AU)2.4075212
mean anomaly (°)15.47664
mean daily motion (°/day)0.26384490
aphelion distance (AU)2.880
period (years)3.74
P-vector [x]0.83819240
P-vector [y]-0.50382897
P-vector [z]-0.20878187
Q-vector [x]0.54535680
Q-vector [y]0.77741113
Q-vector [z]0.31339734
absolute magnitude18.59
phase slope0.15
uncertainty0
referenceMPO 780282
observations used116
oppositions7
arc length (days)5577
first opposition used2008
last opposition used2023
residual rms (arc-secs)0.59
perturbers coarse indicatorM-v
perturbers precise indicator003Ek
first observation date used2008-07-29.0
last observation date used2023-11-05.0
computer nameMPCLINUX
JD of orbit computation2457849.354590
perihelion JD uncertainty (days)5.6444E-04
argument of perihelion uncertainty (°)2.2394E-04
ascending node uncertainty (°)1.6402E-04
inclination uncertainty (°)3.9686E-06
eccentricity uncertainty 3.4295E-08
perihelion distance uncertainty (AU)1.3918E-07
Minimum Orbit Intersection Distances (in AU)
for orbit epoch: 2460200.5, reference: E2023-V65
Mercury1.52409
Venus1.20931
Earth0.92282
Mars0.55541
Jupiter2.44883
Saturn6.30456
Uranus15.5838
Neptune27.4263

Observations

116 total observations over interval: 2008 07 29.37387 – 2023 11 05.305359
These data are available for download (format description).

